www.pogodaiklimat.ru

Погода и климат >> Архив погоды >> Пакистан >> Дера Гази Хан


ПОГОДА в Дера Гази Хан

  • Прогноз погоды в Дера Гази Хан
  • Монитор погоды в Дера Гази Хан

АРХИВ ПОГОДЫ в Дера Гази Хан

Время (UTC), дата Ветер
(напр.,м/с)
 
Видим.   Явления Облачность Т
(С)
Тd
(С)
f
(%)
Тe
(С)
Тes
(С)
Комфортность P
(гПа)
Po
(гПа)
Тmin
(С)
Tmax
(С)
R
(мм)
R24
(мм)
S
(см)
12 16.08 ЮВ 2 4000 м 6/6 1200 м
[Sc]
+37.5 +26.6 54 +54 +55 опасность
перегрева
995.9 978.7 +38.0
15 16.08 ЮВ 2 4000 м зарница 9/9 900 м
[Cb calv]
+34.5 +24.7 57 +48 +48 опасность
перегрева
996.2 982.7
18 16.08 СВ 3 4000 м {гроза, дождь} 10/8 1200 м
[Sc Ac trans]
+26.0 +23.1 84 +35 +35 очень
душно
998.9 981.7 9
21 16.08 СВ 3 4000 м 10/8 1200 м
[Sc Ac trans]
+25.5 +22.6 84 +34 +34 очень
душно
998.6 984.6
00 17.08 СВ 2 4000 м 3/3 1200 м
[Sc]
+25.0 +22.0 83 +32 +32 очень
душно
998.6 981.4
03 17.08 СВ 2 4000 м дым 3/3 1200 м
[Sc]
+27.5 +22.4 74 +36 +40 очень
душно
999.3 982.1 +24.4
06 17.08 СВ 3 4000 м дым ясно +31.0 +24.6 69 +44 +59 опасность
перегрева
999.9 986.2
09 17.08 СВ 4 4000 м дым ясно +33.5 +25.1 62 +48 +59 опасность
перегрева
998.9 985.3
12 17.08 СВ 4 4000 м дым 3/3 1200 м
[Sc]
+34.5 +26.3 62 +51 +52 опасность
перегрева
997.3 980.1 +35.2
15 17.08 СВ 2 4000 м 5/5 1200 м
[Sc]
+32.0 +25.0 67 +46 +46 опасность
перегрева
997.8 984.1
21 17.08 СВ 2 4000 м дым ясно +30.5 +24.1 69 +42 +42 опасность
перегрева
998.8 985.1
00 18.08 штиль 0 4000 м дым 3/3 1200 м
[Sc]
+30.0 +24.3 72 +42 +42 опасность
перегрева
998.4 981.2
03 18.08 СВ 2 4000 м дым ясно +31.5 +25.2 69 +45 +50 опасность
перегрева
1000.8 983.6 +29.6
06 18.08 ЮВ 2 4000 м дым 3/3 1200 м
[Sc]
+33.5 +26.6 67 +50 +63 опасность
перегрева
1001.9 988.3
09 18.08 ЮВ 2 4000 м 3/3 1200 м
[Sc]
+35.0 +27.6 66 +55 +66 опасность
перегрева
1000.8 987.2
12 18.08 С 5 2000 м гроза без осадков 8/5 900 м
[Cb cap Ac und]
+34.5 +27.7 68 +54 +55 опасность
перегрева
1000.2 983.0 +35.7
18 18.08 ЮВ 1 4000 м 3/3 1200 м
[Sc]
+27.0 +22.6 77 +36 +36 очень
душно
1002.5 985.2
21 18.08 В 2 4000 м 3/3 1200 м
[Sc]
+26.5 +22.9 81 +35 +35 очень
душно
1001.9 987.9
00 19.08 В 2 4000 м 3/3 1000 м
[Sc]
+26.5 +22.9 81 +35 +35 очень
душно
1001.3 984.0
03 19.08 ЮЗ 2 4000 м пыльный позёмок ясно +27.5 +23.1 77 +37 +42 очень
душно
1004.2 987.0 +25.7
06 19.08 ЮВ 2 4000 м пыльный позёмок ясно +31.0 +24.6 69 +44 +62 опасность
перегрева
1006.3 992.5
09 19.08 ЮВ 2 4000 м пыльный позёмок ясно +33.0 +26.1 67 +49 +65 опасность
перегрева
1004.9 991.2
12 19.08 ЮВ 2 4000 м пыльный позёмок 6/3 1200 м
[Sc Ac trans]
+33.0 +26.8 70 +51 +52 опасность
перегрева
1002.8 985.6 +33.7
15 19.08 ЮВ 2 4000 м 3/3 1200 м
[Sc]
+31.0 +26.1 75 +46 +46 опасность
перегрева
1002.2 988.4
18 19.08 ЮВ 2 4000 м мгла 3/3 1200 м
[Sc]
+29.5 +24.5 75 +42 +42 опасность
перегрева
1004.6 987.4
00 20.08 С 2 4000 м 3/3 1200 м
[Sc]
+27.5 +23.9 81 +38 +38 очень
душно
1003.5 986.2
03 20.08 ЮЗ 2 4000 м ясно +29.0 +24.0 74 +40 +45 очень
душно
1005.4 988.0 +26.2
06 20.08 ЮЗ 2 4000 м ясно +34.5 +25.5 60 +49 +67 опасность
перегрева
1005.9 992.2
09 20.08 ЮВ 2 4000 м 4/4 1200 м
[Sc]
+36.5 +27.0 58 +54 +64 опасность
перегрева
1004.2 990.7
12 20.08 ЮВ 2 4000 м 4/4 1200 м
[Sc]
+36.0 +27.2 61 +55 +57 опасность
перегрева
1001.7 984.4 +37.5
15 20.08 С 3 4000 м гроза без осадков {морось} 9/6 900 м
[Cb cap Ac trans]
+28.0 +23.7 77 +38 +38 очень
душно
1002.6 988.7 1
18 20.08 ЮЗ 2 4000 м 3/3 1200 м
[Sc]
+31.5 +22.0 57 +40 +40 очень
душно
1001.4 984.1
21 20.08 СЗ 2 4000 м 3/3 1200 м
[Sc]
+30.0 +22.8 65 +40 +40 очень
душно
1000.8 987.0
00 21.08 СЗ 2 4000 м 3/3 1200 м
[Sc]
+27.5 +23.1 77 +37 +37 очень
душно
1000.2 983.0
03 21.08 С 2 4000 м ясно +28.5 +23.5 74 +39 +43 очень
душно
1001.2 984.0 +26.0
06 21.08 СВ 2 4000 м ясно +34.5 +25.5 60 +49 +67 опасность
перегрева
1001.9 988.3
09 21.08 ЮВ 2 4000 м 4/4 1200 м
[Sc]
+36.5 +27.0 58 +54 +64 опасность
перегрева
1001.2 987.7
12 21.08 ЮВ 2 4000 м ясно +36.0 +27.2 61 +55 +58 опасность
перегрева
999.5 982.3 +37.0
15 21.08 ЮВ 2 4000 м ясно +34.5 +27.0 65 +52 +52 опасность
перегрева
999.9 986.3
18 21.08 Ю 2 4000 м ясно +32.5 +25.5 67 +47 +47 опасность
перегрева
1000.2 983.0
21 21.08 Ю 2 4000 м ясно +31.0 +24.6 69 +44 +44 опасность
перегрева
999.7 986.0
00 22.08 ЮЗ 2 4000 м ясно +29.0 +23.2 71 +39 +39 очень
душно
999.0 981.8
03 22.08 ЮЗ 3 4000 м ясно +30.0 +23.5 68 +41 +45 опасность
перегрева
1001.6 984.3 +27.2
06 22.08 ЮЗ 2 4000 м ясно +34.5 +26.3 62 +51 +68 опасность
перегрева
1002.3 988.7
09 22.08 ЮВ 3 4000 м 3/0
[Ac trans]
+37.0 +26.8 56 +54 +65 опасность
перегрева
1000.4 986.9
12 22.08 ЮЗ 4 4000 м 6/3 1200 м
[Sc Ac trans]
+36.5 +26.2 56 +53 +54 опасность
перегрева
999.3 982.1 +38.0
15 22.08 Ю 4 4000 м 5/3 1200 м
[Sc Ac trans]
+34.0 +24.9 59 +47 +47 опасность
перегрева
1001.1 987.5
18 22.08 С 4 4000 м 3/0
[Ac trans]
+32.0 +23.4 60 +43 +43 опасность
перегрева
1001.6 987.9
00 23.08 С 3 4000 м 6/3 1200 м
[Sc Ac trans]
+29.5 +23.0 68 +39 +39 очень
душно
999.1 981.9
03 23.08 СВ 3 4000 м ясно +30.5 +22.5 62 +40 +44 очень
душно
1003.1 985.9 +27.5
06 23.08 В 3 4000 м ясно +34.0 +24.1 56 +46 +60 опасность
перегрева
1004.2 990.6

 

Местоположение метеостанции Дера Гази Хан (Пакистан): широта 30.05 долгота 70.63 высота над уровнем моря 123 м.

В архиве по умолчанию представлена погода в Дера Гази Хан за последнюю неделю. Архивные данные за месяц целиком и за предыдущие месяцы, начиная с января 2011 года, Вы можете получить, выбрав интересующий диапазон дат из раскрывающегося списка и нажав кнопку "Ввод!".


*Определитесь, кто Вы:
робот инопланетянин человек

Внимание! Время в таблицах - всемирное. Для получения местного времени необходимо прибавить поправку, которая равна 5 ч.

Смотрите также архив погоды в соседних городах и на ближайших метеорологических станциях:

Погода в Кот Адду (Пакистан) (54 км)
Погода в Мултане (Пакистан) (79 км)
Погода в Бархане (Пакистан) (90 км)
Погода в Леяхе (Пакистан) (113 км)
Погода в Ханевале (Пакистан) (125 км)
Погода в Бахавалпуре (Пакистан) (133 км)
Погода а Бахавалпур аэропорту (Пакистан) (133 км)
Погода в Ханпуре (Пакистан) (156 км)
Погода на Авиабазе Raifiqui (Пакистан) (171 км)
Погода в Бхаккаре (Пакистан) (180 км)

Пояснения к столбцам:

Ветер - указаны скорость ветра в м/с - средняя за 10 мин, порывы в срок и между сроками (в фигурных скобках) и направление, откуда дует ветер: С - северный, СВ - северо-восточный, В - восточный, ЮВ - юго-восточный, Ю - южный, ЮЗ - юго-западный, З - западный, СЗ - северо-западный.
Видимость - горизонтальная дальность видимости в метрах или километрах. При видимости от 1 до 10 км при отсутствии осадков обычно наблюдается дымка, при ухудшении видимости до 1 км и менее - туман. В сухую погоду видимость может ухудшаться дымом, пылью или мглою.
Явления - указаны атмосферные явления, наблюдавшиеся в срок или в последний час перед сроком; фигурными скобками обозначены явления, наблюдавшиеся между сроками (за 1-3 часа до срока); квадратными скобками обозначены град или гололедные отложения с указанием их диаметра в мм.
Облачность - указаны через наклонную черту общая и нижняя облачность в баллах и высота нижней границы облаков в метрах; квадратными скобками обозначены формы облаков: Ci - перистые, Cs - перисто-слоистые, Cc - перисто-кучевые, Ac - высококучевые, As - высокослоистые, Sc - слоисто-кучевые, Ns - слоисто-дождевые, Cu - кучевые, Cb - кучево-дождевые. Подробнее классификацию облаков см. в Атласе облаков (PDF).
T - Температура воздуха - температура, измеренная на высоте 2 м над землей.
Td - Температура точки росы - температура, при понижении до которой содержащийся в воздухе водяной пар достигнет насыщения.
f - Относительная влажность воздуха - влажноcть воздуха, измеренная на высоте 2 м над землей.
Te - Эффективная температура - температура, которую ощущает одетый по сезону человек в тени. Характеристика душности погоды. При расчете учитывается влияние влажности воздуха и скорости ветра на теплоощущения человека.
Tes - Эффективная температура на солнце - температура, которую ощущает человек, с поправкой на солнечный нагрев. Характеристика знойности погоды. Зависит от высоты солнца над горизонтом, облачности и скорости ветра. Ночью, в пасмурную погоду, а также при ветре 12 м/с и более поправка равна нулю.
P - Атмосферное давление - приведенное к уровню моря атмосферное давление.
Po - Атмосферное давление - измеренное на уровне метеостанции атмосферное давление.
Tmin - Минимальная температура - минимум температуры воздуха на высоте 2 м над землей.
Tmax - Максимальная температура - максимум температуры воздуха на высоте 2 м над землей.
R - Количество осадков - Количество выпавших осадков за период времени, мм. При наведении курсора мыши на число - период времени, за который выпало указанное количество осадков.
R24 - Количество осадков - Количество выпавших осадков за 24 часа, мм.
S - Снежный покров - Высота снежного покрова, см. При наведении курсора мыши на число - состояние снежного покрова и степень покрытия местности в баллах.